Regional Weather Roundup
Issued by NWS

Home | Current Version | Previous Version | Graphics & Text | Print | Product List | Glossary On
Versions: 1 2 3 4 5 6 7 8 9 10 11 12 13 14 15 16 17 18 19 20 21 22 23 24 25 26 27 28 29 30 31 32 33 34 35 36 37 38 39 40 41 42 43 44 45 46 47 48 49 50
000
ASUS43 KLMK 222102
RWRKY
KENTUCKY REGIONAL WEATHER ROUNDUP
NATIONAL WEATHER SERVICE LOUISVILLE KY
400 PM EST SAT NOV 22 2014

NOTE "FAIR" INDICATES FEW OR NO CLOUDS BELOW 12,000 FEET
WITH NO SIGNIFICANT WEATHER AND/OR OBSTRUCTIONS TO VISIBILITY.

KYZ001>023-026-027-061>063-070>075-222200-
WESTERN AND SOUTH CENTRAL KENTUCKY

CITY           SKY/WX    TMP DP  RH WIND       PRES   REMARKS
PADUCAH        CLOUDY    64  39  39 VRB5      30.07F
HENDERSON      PTSUNNY   66  39  37 S16       30.08F
OWENSBORO      SUNNY     65  40  39 S20G28    30.10F
HOPKINSVILLE   SUNNY     65  33  29 S14G20    30.11F
BOWLING GREEN  PTSUNNY   65  34  31 S13       30.15F
GLASGOW        NOT AVBL
$$

KYZ024-025-028>034-038-045-046-053-222200-
NORTH CENTRAL KENTUCKY

CITY           SKY/WX    TMP DP  RH WIND       PRES   REMARKS
LOUISVILLE/SDF PTSUNNY   63  35  35 S17G24    30.12F
LOUISVILLE/LOU CLOUDY    62  34  35 S15G23    30.12F
FORT KNOX      CLOUDY    60  35  39 S13       30.12F
$$

KYZ035>037-039>044-047>052-055>060-089>105-222200-
NORTHEAST KENTUCKY

CITY           SKY/WX    TMP DP  RH WIND       PRES   REMARKS
LEXINGTON      MOSUNNY   60  32  34 S14       30.17S
COVINGTON      PTSUNNY   59  35  40 S15       30.12S
FRANKFORT      CLOUDY    61  33  35 SW17G26   30.14F
$$

KYZ054-064>069-076>088-106>120-222200-
SOUTHEAST KENTUCKY

CITY           SKY/WX    TMP DP  RH WIND       PRES   REMARKS
JACKSON        SUNNY     59  23  25 S6        30.21F
LONDON         PTSUNNY   59  27  29 S9        30.21F
SOMERSET       NOT AVBL
MIDDLESBORO    NOT AVBL
MONTICELLO     CLOUDY    62  30  30 S16       30.22F
$$




USA.gov is the U.S. government's official web portal to all federal, state and local government web resources and services.